EW1549 Weather Reports


time (UTC)temp
F
wind
direction
speed
knots
gust
knots
rain 1hr
in
rain 24hr
in
rain mn
in
humidity
%
barometer
mb
20260504044544 62 172 1.7 5.2 0.00 0.00 0.00 67 1014.9
20260504043054 62 164 0.9 2.6 0.00 0.00 0.00 66 1015.0
20260504041543 62 159 1.7 5.2 0.00 0.00 0.00 67 1015.1
20260504040047 62 157 0.9 3.5 0.00 0.00 0.00 67 1014.9
20260504034551 62 153 0.0 2.6 0.00 0.00 0.00 67 1014.9
20260504033041 61 175 2.6 5.2 0.00 0.00 0.00 67 1015.0
20260504031538 62 180 0.9 5.2 0.00 0.00 0.00 67 1015.2
20260504030043 62 152 1.7 3.5 0.00 0.00 0.00 67 1015.1
20260504024536 62 190 0.9 2.6 0.00 0.00 0.00 65 1015.2
20260504023033 62 173 1.7 2.6 0.00 0.00 0.00 65 1015.2
20260504021536 63 181 0.9 3.5 0.00 0.00 0.00 65 1015.4
20260504020040 63 160 1.7 3.5 0.00 0.00 0.00 65 1015.5
20260504014535 63 199 0.9 2.6 0.00 0.00 0.00 64 1015.6
20260504013027 63 185 1.7 3.5 0.00 0.00 0.00 66 1015.9
20260504011526 63 194 0.9 2.6 0.00 0.00 0.00 64 1015.9
20260504010025 63 186 1.7 2.6 0.00 0.00 0.00 64 1015.9
20260504004523 63 196 0.0 3.5 0.00 0.00 0.00 65 1016.0
20260504003021 62 193 0.9 3.5 0.00 0.00 0.00 68 1016.5
20260504001520 63 146 1.7 3.5 0.00 0.00 0.00 67 1016.6
20260504000017 63 139 1.7 3.5 0.00 0.00 0.00 68 1016.7
20260503234520 62 161 0.9 2.6 0.00 0.00 0.00 69 1016.8
20260503233015 62 194 0.9 2.6 0.00 0.00 0.00 69 1016.7
20260503231520 62 179 0.9 2.6 0.00 0.00 0.00 69 1016.6
20260503230011 63 194 0.9 2.6 0.00 0.00 0.00 69 1016.8
20260503224509 63 205 0.0 1.7 0.00 0.00 0.00 72 1016.5
20260503223009 63 168 0.9 3.5 0.00 0.00 0.00 75 1016.3
20260503221507 62 188 1.7 3.5 0.00 0.00 0.00 74 1016.5
20260503220007 62 203 1.7 2.6 0.00 0.00 0.00 74 1016.2
20260503214522 62 187 0.9 2.6 0.00 0.00 0.00 74 1016.1
20260503213007 63 192 0.9 2.6 0.00 0.00 0.00 73 1016.1
20260503211505 63 209 0.9 1.7 0.00 0.00 0.00 74 1015.8
20260503210005 63 175 0.9 2.6 0.00 0.00 0.00 75 1015.7
20260503204504 63 169 0.9 2.6 0.00 0.00 0.00 75 1015.5
20260503203003 64 149 0.0 1.7 0.00 0.00 0.00 76 1015.6
20260503201503 64 221 0.0 3.5 0.00 0.00 0.00 76 1015.1
20260503200003 65 237 2.6 4.3 0.00 0.00 0.00 75 1015.4
20260503194502 65 265 1.7 3.5 0.00 0.00 0.00 73 1015.2
20260503193002 65 271 2.6 5.2 0.00 0.00 0.00 71 1015.3
20260503191507 66 282 1.7 5.2 0.00 0.00 0.00 71 1015.1
20260503190059 66 335 0.9 2.6 0.00 0.00 0.00 62 1014.9
20260503184613 66 338 1.7 6.1 0.00 0.00 0.00 66 1014.8
20260503183054 67 334 1.7 3.5 0.00 0.00 0.00 64 1014.8
20260503181611 67 329 2.6 7.0 0.00 0.00 0.00 60 1014.9
20260503180112 68 358 2.6 5.2 0.00 0.00 0.00 61 1014.8
20260503174556 68 359 1.7 5.2 0.00 0.00 0.00 65 1014.8
20260503173058 68 4 0.9 7.0 0.00 0.00 0.00 65 1014.9
20260503171545 68 41 2.6 7.0 0.00 0.00 0.00 69 1015.1
20260503081557 62 176 1.7 5.2 0.00 0.00 0.00 71 1016.6
20260503080106 61 214 1.7 5.2 0.00 0.00 0.00 71 1016.8
20260503071600 59 185 2.6 4.3 0.00 0.00 0.00 74 1016.7